Language: 


Des rapports , des résumés tant et plus, au choix de chacun....


Données statistiques de la station
Quotidien Rapport Janvier 31, 2018 Unités:  Anglais    Métrique   les deux
« Précédent Jour
Suivant Jour »
Quotidien Hebdomadaire Mensuel Annuel Actuel
  Haut: Bas: Moyen:
Température: TemperatureC °F 1.8 °F 7.8 °F
Pt de rosée: DewpointC °F 0.0 °F 7.2 °F
Humidité: Humidity % 81 % 94 %
Vitesse du vent: WindSpeedKMH mph 0.0 mph 17.7 mph
Rafales: WindSpeedGustKMH mph - -
Vent:- - WSW
Pression: PressurehPa in 1000.9 in -
Précipitation: 8.4 in    
Historical Graphs
 
 
Données statistiques pour Janvier 31, 2018
Heure Température Point de rosée Pression Vent Vitesse du vent Refales Humidité Pluie (taux horaire)
TemperatureC °F DewpointC °F PressurehPa in Calm     Humidity % HourlyPrecipMM in
00:00 9.3 °F 9.0 °F 1018.2 in SSW 9.7 mph 16.6 mph 98 % 0.0 in
00:05 9.3 °F 9.0 °F 1018.2 in SW 9.0 mph 16.6 mph 98 % 0.0 in
00:10 9.4 °F 9.0 °F 1018.2 in SSW 12.6 mph 14.0 mph 98 % 0.0 in
00:15 9.4 °F 9.0 °F 1016.8 in SW 11.9 mph 14.0 mph 98 % 0.0 in
00:20 9.4 °F 9.0 °F 1016.8 in SW 12.2 mph 16.3 mph 98 % 0.0 in
00:25 9.5 °F 10.0 °F 1016.8 in SW 14.0 mph 17.7 mph 98 % 0.0 in
00:30 9.6 °F 10.0 °F 1016.1 in South 9.0 mph 17.7 mph 98 % 0.0 in
00:35 9.6 °F 10.0 °F 1016.1 in SSW 10.1 mph 17.7 mph 98 % 0.0 in
00:40 9.7 °F 10.0 °F 1016.1 in WSW 14.0 mph 20.1 mph 98 % 0.0 in
00:45 9.8 °F 10.0 °F 1016.8 in WSW 13.0 mph 20.9 mph 98 % 0.0 in
00:50 9.8 °F 10.0 °F 1016.8 in SW 15.8 mph 20.9 mph 98 % 0.0 in
00:56 9.9 °F 10.0 °F 1016.8 in SW 20.1 mph 20.9 mph 98 % 0.0 in
01:01 9.9 °F 10.0 °F 1016.8 in SW 16.9 mph 23.3 mph 98 % 0.0 in
01:06 10.0 °F 10.0 °F 1016.8 in WSW 16.6 mph 25.3 mph 98 % 0.0 in
01:11 10.0 °F 10.0 °F 1016.8 in WSW 14.8 mph 25.3 mph 98 % 0.0 in
01:16 10.0 °F 10.0 °F 1016.1 in SW 20.1 mph 23.0 mph 98 % 0.0 in
01:21 10.0 °F 10.0 °F 1016.1 in SW 16.6 mph 23.0 mph 98 % 0.0 in
01:26 10.0 °F 10.0 °F 1016.1 in WSW 17.7 mph 22.7 mph 98 % 0.0 in
01:31 10.0 °F 10.0 °F 1016.1 in WSW 21.6 mph 25.9 mph 98 % 0.0 in
01:36 10.0 °F 10.0 °F 1016.1 in WSW 20.9 mph 25.9 mph 98 % 0.0 in
01:41 10.0 °F 10.0 °F 1016.1 in WSW 14.0 mph 23.0 mph 98 % 0.0 in
01:46 10.0 °F 10.0 °F 1015.1 in WSW 12.2 mph 23.8 mph 98 % 0.0 in
01:51 10.1 °F 10.0 °F 1015.1 in WSW 18.0 mph 27.0 mph 98 % 0.0 in
01:56 10.1 °F 10.0 °F 1015.1 in WSW 20.9 mph 27.0 mph 98 % 0.0 in
02:01 10.1 °F 10.0 °F 1014.1 in WSW 13.0 mph 24.8 mph 98 % 0.0 in
02:06 10.1 °F 10.0 °F 1014.1 in WSW 19.8 mph 24.8 mph 98 % 0.3 in
02:11 10.1 °F 10.0 °F 1014.1 in WSW 16.9 mph 27.4 mph 98 % 0.3 in
02:16 10.1 °F 10.0 °F 1015.1 in WSW 16.6 mph 28.0 mph 98 % 0.3 in
02:21 10.1 °F 10.0 °F 1015.1 in SSW 19.8 mph 28.5 mph 98 % 0.3 in
02:26 10.1 °F 10.0 °F 1015.1 in West 17.2 mph 31.4 mph 98 % 0.3 in
02:31 10.1 °F 10.0 °F 1015.1 in WSW 21.2 mph 31.4 mph 98 % 0.3 in
02:36 10.1 °F 10.0 °F 1015.1 in WSW 23.3 mph 30.9 mph 98 % 0.3 in
02:41 10.0 °F 10.0 °F 1015.1 in WSW 16.9 mph 28.5 mph 98 % 0.3 in
02:46 10.0 °F 10.0 °F 1015.1 in WSW 20.1 mph 36.0 mph 98 % 0.3 in
02:51 10.0 °F 10.0 °F 1015.1 in SW 20.6 mph 36.0 mph 98 % 0.3 in
02:56 10.0 °F 10.0 °F 1015.1 in WSW 17.2 mph 31.4 mph 98 % 0.3 in
03:01 9.9 °F 10.0 °F 1014.1 in WSW 16.6 mph 28.0 mph 98 % 0.3 in
03:06 9.9 °F 10.0 °F 1014.1 in WSW 20.1 mph 28.0 mph 98 % 0.0 in
03:11 9.9 °F 10.0 °F 1014.1 in SSW 19.8 mph 31.7 mph 98 % 0.0 in
03:16 9.9 °F 10.0 °F 1014.1 in WSW 30.6 mph 31.7 mph 98 % 0.0 in
03:21 9.9 °F 10.0 °F 1014.1 in WSW 19.8 mph 31.4 mph 98 % 0.0 in
03:27 9.9 °F 10.0 °F 1014.1 in WSW 27.4 mph 31.4 mph 98 % 0.0 in
03:32 9.9 °F 10.0 °F 1013.1 in SW 17.7 mph 32.0 mph 98 % 0.0 in
03:37 9.9 °F 10.0 °F 1013.1 in WSW 20.1 mph 32.0 mph 98 % 0.0 in
03:42 9.9 °F 10.0 °F 1013.1 in SW 20.9 mph 28.0 mph 98 % 0.3 in
03:47 9.9 °F 10.0 °F 1013.1 in WSW 15.1 mph 26.2 mph 98 % 0.3 in
03:52 9.8 °F 10.0 °F 1013.1 in SSW 23.0 mph 24.8 mph 98 % 0.3 in
03:57 9.8 °F 10.0 °F 1013.1 in WSW 23.8 mph 31.7 mph 98 % 0.3 in
04:02 9.9 °F 10.0 °F 1013.1 in SSW 20.9 mph 32.0 mph 98 % 0.3 in
04:07 9.9 °F 10.0 °F 1013.1 in WSW 16.3 mph 36.7 mph 98 % 0.3 in
04:12 9.9 °F 10.0 °F 1013.1 in SW 23.8 mph 37.0 mph 98 % 0.3 in
04:17 9.9 °F 10.0 °F 1013.1 in SSW 16.6 mph 37.0 mph 98 % 0.3 in
04:22 9.9 °F 10.0 °F 1013.1 in WSW 17.2 mph 36.7 mph 98 % 0.3 in
04:27 9.9 °F 10.0 °F 1013.1 in WSW 24.5 mph 29.9 mph 98 % 0.3 in
04:32 9.9 °F 10.0 °F 1012.1 in SW 20.1 mph 29.9 mph 98 % 0.3 in
04:37 9.9 °F 10.0 °F 1012.1 in WSW 16.6 mph 35.2 mph 98 % 0.0 in
04:42 9.9 °F 10.0 °F 1012.1 in SW 20.9 mph 35.2 mph 98 % 0.0 in
04:47 9.9 °F 10.0 °F 1011.1 in SSW 25.3 mph 35.2 mph 98 % 0.0 in
04:52 9.9 °F 10.0 °F 1011.1 in SSW 30.2 mph 38.9 mph 98 % 0.0 in
04:57 9.9 °F 10.0 °F 1011.1 in SW 27.4 mph 38.9 mph 98 % 0.0 in
05:02 9.9 °F 10.0 °F 1011.1 in WSW 20.6 mph 37.8 mph 98 % 0.0 in
05:07 9.9 °F 10.0 °F 1011.1 in WSW 23.3 mph 37.8 mph 98 % 0.0 in
05:12 9.9 °F 10.0 °F 1011.1 in SW 20.6 mph 35.2 mph 98 % 0.0 in
05:18 9.9 °F 10.0 °F 1011.1 in WSW 17.2 mph 35.2 mph 98 % 0.0 in
05:23 9.9 °F 10.0 °F 1011.1 in SW 14.8 mph 28.8 mph 98 % 0.0 in
05:28 9.9 °F 10.0 °F 1011.1 in SSW 14.8 mph 24.5 mph 98 % 0.0 in
05:33 9.9 °F 10.0 °F 1011.1 in SSW 28.0 mph 32.0 mph 98 % 0.0 in
05:38 9.9 °F 10.0 °F 1011.1 in SW 16.3 mph 32.0 mph 98 % 0.0 in
05:43 9.9 °F 10.0 °F 1011.1 in SW 21.2 mph 26.2 mph 98 % 0.0 in
05:48 9.9 °F 10.0 °F 1011.1 in WSW 28.0 mph 36.7 mph 98 % 0.0 in
05:53 9.9 °F 10.0 °F 1011.1 in WSW 29.1 mph 36.7 mph 98 % 0.0 in
05:58 9.9 °F 10.0 °F 1011.1 in WSW 27.7 mph 29.9 mph 98 % 0.0 in
06:03 9.9 °F 10.0 °F 1011.1 in South 28.8 mph 29.1 mph 98 % 0.0 in
06:08 9.9 °F 10.0 °F 1011.1 in WSW 29.9 mph 32.0 mph 98 % 0.0 in
06:13 9.8 °F 10.0 °F 1011.1 in WSW 17.7 mph 35.6 mph 98 % 0.0 in
06:18 9.8 °F 10.0 °F 1010.0 in WSW 17.7 mph 35.6 mph 98 % 0.0 in
06:23 9.8 °F 10.0 °F 1010.0 in SW 24.8 mph 36.4 mph 98 % 0.0 in
06:28 9.8 °F 10.0 °F 1010.0 in WSW 20.9 mph 36.4 mph 98 % 0.0 in
06:33 9.9 °F 10.0 °F 1010.0 in SW 16.6 mph 29.1 mph 98 % 0.0 in
06:38 9.9 °F 10.0 °F 1010.0 in SW 21.2 mph 39.3 mph 98 % 0.0 in
06:43 9.9 °F 10.0 °F 1010.0 in SSW 20.1 mph 39.3 mph 98 % 0.0 in
06:48 9.9 °F 10.0 °F 1010.0 in SSW 30.9 mph 32.8 mph 98 % 0.0 in
06:53 9.9 °F 10.0 °F 1010.0 in WSW 21.2 mph 31.7 mph 98 % 0.0 in
06:58 9.9 °F 10.0 °F 1010.0 in WSW 20.1 mph 28.5 mph 98 % 0.3 in
07:03 9.9 °F 10.0 °F 1010.0 in SSW 23.0 mph 28.5 mph 98 % 0.3 in
07:08 9.8 °F 10.0 °F 1010.0 in WSW 24.5 mph 28.0 mph 98 % 0.3 in
07:13 9.8 °F 10.0 °F 1010.0 in SW 16.6 mph 27.7 mph 98 % 0.3 in
07:18 9.8 °F 10.0 °F 1010.0 in WSW 17.2 mph 24.8 mph 98 % 0.3 in
07:23 9.8 °F 10.0 °F 1010.0 in SSW 28.5 mph 28.5 mph 98 % 0.3 in
07:29 9.8 °F 10.0 °F 1009.0 in SW 29.1 mph 29.1 mph 98 % 0.3 in
07:34 9.8 °F 10.0 °F 1009.0 in SW 24.5 mph 31.7 mph 98 % 0.3 in
07:39 9.8 °F 10.0 °F 1009.0 in WSW 24.8 mph 31.7 mph 98 % 0.3 in
07:44 9.8 °F 10.0 °F 1009.0 in SSW 16.9 mph 35.6 mph 98 % 0.3 in
07:49 9.8 °F 10.0 °F 1009.0 in SW 16.3 mph 35.6 mph 98 % 0.3 in
07:54 9.8 °F 10.0 °F 1009.0 in WSW 19.8 mph 31.4 mph 98 % 0.0 in
07:59 9.7 °F 10.0 °F 1008.0 in WSW 21.6 mph 27.7 mph 98 % 0.0 in
08:04 9.7 °F 10.0 °F 1008.0 in WSW 19.8 mph 28.5 mph 98 % 0.0 in
08:09 9.7 °F 10.0 °F 1008.0 in SSW 23.8 mph 28.5 mph 98 % 0.0 in
08:14 9.6 °F 10.0 °F 1008.0 in WSW 20.1 mph 28.5 mph 98 % 0.0 in
08:19 9.6 °F 10.0 °F 1009.0 in SW 20.9 mph 31.7 mph 98 % 0.3 in
08:24 9.6 °F 10.0 °F 1009.0 in SW 20.6 mph 31.7 mph 98 % 0.3 in
08:29 9.6 °F 10.0 °F 1009.0 in WSW 21.2 mph 30.6 mph 98 % 0.3 in
08:34 9.6 °F 10.0 °F 1009.0 in SSW 23.0 mph 24.8 mph 98 % 0.3 in
08:39 9.5 °F 10.0 °F 1009.0 in SSW 12.6 mph 23.8 mph 98 % 0.3 in
08:44 9.5 °F 10.0 °F 1009.0 in WSW 19.5 mph 31.4 mph 98 % 0.3 in
08:49 9.5 °F 10.0 °F 1009.0 in SSW 15.1 mph 31.4 mph 98 % 0.3 in
08:54 9.4 °F 9.0 °F 1009.0 in SSW 28.0 mph 28.0 mph 98 % 0.3 in
08:56 9.4 °F 9.0 °F 1009.0 in WSW 16.6 mph 28.0 mph 98 % 0.3 in
09:01 9.4 °F 9.0 °F 1008.0 in SW 13.0 mph 28.0 mph 98 % 0.3 in
09:06 9.4 °F 9.0 °F 1008.0 in WSW 21.9 mph 28.8 mph 98 % 0.3 in
09:11 9.4 °F 9.0 °F 1008.0 in SSW 16.3 mph 28.8 mph 98 % 0.3 in
09:16 9.4 °F 9.0 °F 1008.0 in SW 19.8 mph 23.8 mph 98 % 0.3 in
09:21 9.4 °F 9.0 °F 1008.0 in SSW 17.2 mph 23.8 mph 98 % 0.0 in
09:26 9.4 °F 9.0 °F 1008.0 in WSW 13.7 mph 23.3 mph 98 % 0.0 in
09:31 9.4 °F 9.0 °F 1008.0 in SW 13.7 mph 26.2 mph 98 % 0.3 in
09:36 9.4 °F 9.0 °F 1008.0 in WSW 22.4 mph 26.2 mph 98 % 0.3 in
09:41 9.4 °F 9.0 °F 1008.0 in SW 20.9 mph 24.8 mph 98 % 0.3 in
09:46 9.4 °F 9.0 °F 1007.0 in WSW 21.9 mph 23.3 mph 98 % 0.8 in
09:51 9.4 °F 9.0 °F 1007.0 in WSW 27.7 mph 27.7 mph 98 % 0.8 in
09:56 9.4 °F 9.0 °F 1007.0 in WSW 21.6 mph 48.3 mph 98 % 0.8 in
10:01 9.4 °F 9.0 °F 1007.0 in SW 21.2 mph 48.3 mph 98 % 0.8 in
10:07 9.4 °F 9.0 °F 1007.0 in WNW 20.6 mph 24.8 mph 98 % 0.8 in
10:12 9.4 °F 9.0 °F 1007.0 in WSW 11.1 mph 24.8 mph 98 % 1.0 in
10:17 9.4 °F 9.0 °F 1007.0 in West 29.9 mph 29.9 mph 98 % 1.3 in
10:22 9.2 °F 9.0 °F 1007.0 in WSW 36.4 mph 43.6 mph 98 % 1.5 in
10:27 9.2 °F 9.0 °F 1007.0 in West 24.8 mph 43.6 mph 98 % 1.3 in
10:32 9.2 °F 9.0 °F 1007.0 in WSW 24.8 mph 33.5 mph 98 % 1.3 in
10:37 9.2 °F 9.0 °F 1007.0 in WSW 37.0 mph 37.0 mph 98 % 1.3 in
10:42 9.2 °F 9.0 °F 1007.0 in WSW 32.0 mph 37.0 mph 98 % 1.3 in
10:47 9.2 °F 9.0 °F 1007.0 in WSW 21.9 mph 37.0 mph 98 % 0.8 in
10:52 9.3 °F 9.0 °F 1007.0 in WSW 28.0 mph 32.0 mph 98 % 0.8 in
10:57 9.3 °F 9.0 °F 1007.0 in WSW 20.6 mph 35.6 mph 98 % 0.8 in
11:02 9.3 °F 9.0 °F 1007.0 in WSW 20.9 mph 35.6 mph 98 % 0.8 in
11:07 9.3 °F 9.0 °F 1007.0 in WSW 31.4 mph 32.0 mph 98 % 0.8 in
11:12 9.3 °F 9.0 °F 1007.0 in WSW 25.6 mph 31.4 mph 98 % 0.8 in
11:17 9.3 °F 9.0 °F 1007.0 in SW 28.5 mph 31.4 mph 98 % 0.5 in
11:22 9.2 °F 9.0 °F 1007.0 in WSW 22.4 mph 41.7 mph 98 % 0.3 in
11:27 9.1 °F 9.0 °F 1007.0 in WSW 53.6 mph 53.6 mph 98 % 0.5 in
11:32 9.0 °F 9.0 °F 1007.0 in WSW 53.6 mph 53.6 mph 98 % 1.0 in
11:37 8.9 °F 9.0 °F 1007.0 in West 38.1 mph 53.6 mph 98 % 1.0 in
11:42 8.9 °F 9.0 °F 1007.0 in West 38.1 mph 53.6 mph 98 % 1.3 in
11:47 8.8 °F 9.0 °F 1007.0 in West 23.0 mph 38.1 mph 98 % 1.3 in
11:52 8.8 °F 9.0 °F 1007.0 in WSW 24.5 mph 38.1 mph 98 % 1.5 in
11:57 8.8 °F 9.0 °F 1007.0 in West 42.5 mph 42.5 mph 98 % 1.8 in
12:02 8.8 °F 9.0 °F 1006.0 in WSW 37.8 mph 45.7 mph 98 % 2.3 in
12:07 8.7 °F 9.0 °F 1006.0 in WSW 21.6 mph 45.7 mph 98 % 2.5 in
12:12 8.6 °F 9.0 °F 1006.0 in West 26.2 mph 39.3 mph 98 % 2.3 in
12:17 8.6 °F 9.0 °F 1006.0 in WSW 25.6 mph 33.8 mph 98 % 2.5 in
12:22 8.6 °F 9.0 °F 1006.0 in WSW 30.9 mph 31.4 mph 98 % 2.8 in
12:27 8.6 °F 9.0 °F 1006.0 in WSW 28.5 mph 35.2 mph 98 % 2.5 in
12:32 8.5 °F 9.0 °F 1006.0 in WSW 36.0 mph 39.3 mph 98 % 2.5 in
12:38 8.5 °F 9.0 °F 1006.0 in WSW 36.0 mph 39.3 mph 98 % 2.5 in
12:43 8.5 °F 9.0 °F 1006.0 in WSW 36.0 mph 36.0 mph 98 % 2.5 in
12:48 8.3 °F 9.0 °F 1005.0 in WSW 36.0 mph 36.0 mph 98 % 2.5 in
12:53 8.3 °F 8.0 °F 1005.0 in WSW 36.0 mph 36.0 mph 97 % 2.3 in
12:58 8.2 °F 8.0 °F 1005.0 in WSW 36.0 mph 36.0 mph 98 % 2.3 in
13:03 8.2 °F 8.0 °F 1003.9 in WSW 36.0 mph 36.0 mph 98 % 1.8 in
13:08 8.2 °F 8.0 °F 1003.9 in WSW 36.0 mph 36.0 mph 98 % 1.5 in
13:13 8.1 °F 8.0 °F 1003.9 in WSW 36.0 mph 36.0 mph 98 % 1.8 in
13:18 8.1 °F 8.0 °F 1005.0 in WSW 36.0 mph 36.0 mph 98 % 1.5 in
13:23 8.1 °F 8.0 °F 1005.0 in WSW 36.0 mph 36.0 mph 98 % 1.3 in
13:28 8.1 °F 8.0 °F 1005.0 in WSW 36.0 mph 36.0 mph 98 % 1.3 in
13:33 8.1 °F 8.0 °F 1005.0 in WSW 36.0 mph 36.0 mph 98 % 0.8 in
13:38 8.1 °F 8.0 °F 1005.0 in WSW 36.0 mph 36.0 mph 97 % 0.8 in
13:43 8.1 °F 8.0 °F 1005.0 in WSW 36.0 mph 36.0 mph 96 % 0.5 in
13:48 8.1 °F 8.0 °F 1003.9 in WSW 36.0 mph 36.0 mph 96 % 0.5 in
13:53 8.1 °F 8.0 °F 1003.9 in WSW 36.0 mph 36.0 mph 95 % 0.5 in
13:58 8.1 °F 7.0 °F 1003.9 in WSW 36.0 mph 36.0 mph 94 % 0.3 in
14:03 8.1 °F 7.0 °F 1002.9 in WSW 36.0 mph 36.0 mph 94 % 0.3 in
14:08 8.1 °F 7.0 °F 1002.9 in WSW 36.0 mph 36.0 mph 92 % 0.3 in
14:13 8.2 °F 7.0 °F 1002.9 in WSW 36.0 mph 36.0 mph 91 % 0.0 in
14:18 8.3 °F 7.0 °F 1002.9 in WSW 36.0 mph 36.0 mph 90 % 0.0 in
14:23 8.3 °F 7.0 °F 1002.9 in WSW 36.0 mph 36.0 mph 90 % 0.0 in
14:26 8.3 °F 7.0 °F 1002.9 in WSW 36.0 mph 36.0 mph 89 % 0.0 in
14:31 8.3 °F 7.0 °F 1002.9 in WSW 16.3 mph 16.3 mph 88 % 0.0 in
14:36 8.3 °F 7.0 °F 1002.9 in WSW 16.3 mph 16.3 mph 87 % 0.0 in
14:41 8.3 °F 6.0 °F 1002.9 in WSW 16.3 mph 16.3 mph 86 % 0.0 in
14:46 8.3 °F 6.0 °F 1001.9 in WSW 16.3 mph 16.3 mph 86 % 0.0 in
14:51 8.4 °F 6.0 °F 1001.9 in WSW 19.1 mph 19.1 mph 86 % 0.0 in
14:57 8.4 °F 6.0 °F 1001.9 in WSW 19.1 mph 19.1 mph 85 % 0.0 in
15:02 8.5 °F 7.0 °F 1002.9 in WSW 19.1 mph 19.1 mph 86 % 0.0 in
15:07 8.5 °F 7.0 °F 1002.9 in WSW 19.1 mph 19.1 mph 86 % 0.0 in
15:12 8.5 °F 7.0 °F 1002.9 in WSW 19.1 mph 19.1 mph 86 % 0.0 in
15:17 8.7 °F 7.0 °F 1001.9 in WSW 19.1 mph 19.1 mph 86 % 0.0 in
15:22 8.8 °F 7.0 °F 1001.9 in WSW 19.1 mph 19.1 mph 86 % 0.0 in
15:27 8.8 °F 7.0 °F 1001.9 in WSW 19.1 mph 19.1 mph 86 % 0.0 in
15:32 8.8 °F 7.0 °F 1001.9 in WSW 19.1 mph 19.1 mph 86 % 0.0 in
15:37 8.7 °F 7.0 °F 1001.9 in WSW 19.1 mph 19.1 mph 87 % 0.0 in
15:42 8.6 °F 7.0 °F 1001.9 in WSW 19.1 mph 19.1 mph 88 % 0.0 in
15:47 8.4 °F 7.0 °F 1001.9 in WSW 19.1 mph 19.1 mph 90 % 0.3 in
15:52 8.2 °F 7.0 °F 1001.9 in WSW 19.5 mph 24.8 mph 92 % 0.5 in
15:57 8.1 °F 7.0 °F 1001.9 in WSW 19.5 mph 24.8 mph 94 % 0.8 in
16:02 8.1 °F 7.0 °F 1001.9 in West 17.7 mph 35.2 mph 94 % 1.3 in
16:07 8.0 °F 8.0 °F 1001.9 in West 17.7 mph 35.2 mph 95 % 1.3 in
16:12 7.9 °F 7.0 °F 1001.9 in West 17.7 mph 17.7 mph 95 % 1.3 in
16:17 7.7 °F 7.0 °F 1001.9 in West 17.7 mph 17.7 mph 95 % 1.3 in
16:23 7.4 °F 7.0 °F 1001.9 in West 17.7 mph 17.7 mph 95 % 1.3 in
16:28 7.3 °F 6.0 °F 1001.9 in West 17.7 mph 17.7 mph 94 % 1.3 in
16:33 7.1 °F 6.0 °F 1001.9 in West 17.7 mph 17.7 mph 94 % 1.3 in
16:38 6.9 °F 6.0 °F 1001.9 in North 4.7 mph 4.7 mph 95 % 1.3 in
16:43 6.8 °F 6.0 °F 1001.9 in North 4.7 mph 4.7 mph 95 % 1.3 in
16:48 6.8 °F 6.0 °F 1001.9 in North 4.7 mph 4.7 mph 95 % 1.0 in
16:53 6.7 °F 6.0 °F 1001.9 in North 4.7 mph 4.7 mph 95 % 0.8 in
16:58 6.6 °F 6.0 °F 1001.9 in North 4.7 mph 4.7 mph 95 % 0.3 in
17:03 6.5 °F 6.0 °F 1000.9 in North 4.7 mph 4.7 mph 95 % 0.0 in
17:08 6.4 °F 6.0 °F 1000.9 in North 4.7 mph 4.7 mph 96 % 0.0 in
17:13 6.4 °F 6.0 °F 1000.9 in North 4.7 mph 4.7 mph 96 % 0.0 in
17:18 6.4 °F 6.0 °F 1000.9 in North 4.7 mph 4.7 mph 96 % 0.0 in
17:23 6.3 °F 6.0 °F 1000.9 in North 4.7 mph 4.7 mph 96 % 0.0 in
17:28 6.2 °F 6.0 °F 1000.9 in North 4.7 mph 4.7 mph 97 % 0.0 in
17:33 6.1 °F 6.0 °F 1000.9 in SW 4.3 mph 9.3 mph 97 % 0.0 in
17:38 5.9 °F 6.0 °F 1000.9 in WSW 6.1 mph 9.3 mph 97 % 0.0 in
17:43 5.9 °F 6.0 °F 1000.9 in WSW 8.7 mph 11.6 mph 97 % 0.0 in
17:48 5.8 °F 6.0 °F 1001.9 in Calm   11.6 mph 97 % 0.0 in
17:53 5.8 °F 6.0 °F 1001.9 in Calm   10.1 mph 98 % 0.0 in
17:55 5.8 °F 6.0 °F 1001.9 in WSW 11.6 mph 11.6 mph 98 % 0.0 in
18:00 5.8 °F 6.0 °F 1000.9 in WSW 9.7 mph 14.0 mph 98 % 0.0 in
18:05 5.8 °F 6.0 °F 1000.9 in WSW 10.8 mph 14.0 mph 98 % 0.0 in
18:10 5.8 °F 6.0 °F 1000.9 in WSW 11.9 mph 13.0 mph 98 % 0.0 in
18:15 5.8 °F 6.0 °F 1000.9 in WSW 10.5 mph 13.7 mph 98 % 0.0 in
18:20 5.8 °F 6.0 °F 1000.9 in WSW 10.1 mph 15.8 mph 98 % 0.0 in
18:25 5.8 °F 6.0 °F 1000.9 in WSW 14.0 mph 15.8 mph 98 % 0.0 in
18:30 5.9 °F 6.0 °F 1000.9 in WSW 11.6 mph 14.0 mph 98 % 0.0 in
18:35 6.0 °F 6.0 °F 1000.9 in SW 11.9 mph 15.8 mph 98 % 0.0 in
18:40 6.0 °F 6.0 °F 1000.9 in West 16.6 mph 20.9 mph 98 % 0.0 in
18:45 6.2 °F 6.0 °F 1001.9 in West 16.3 mph 23.3 mph 98 % 0.0 in
18:50 6.2 °F 6.0 °F 1001.9 in West 17.2 mph 23.3 mph 98 % 0.0 in
18:55 6.3 °F 6.0 °F 1001.9 in West 14.0 mph 27.7 mph 96 % 0.0 in
19:00 6.3 °F 5.0 °F 1001.9 in West 20.9 mph 27.7 mph 92 % 0.0 in
19:05 6.2 °F 5.0 °F 1001.9 in West 15.8 mph 25.6 mph 91 % 0.0 in
19:10 6.2 °F 5.0 °F 1001.9 in West 17.2 mph 25.6 mph 88 % 0.0 in
19:15 6.1 °F 4.0 °F 1000.9 in West 16.6 mph 24.8 mph 86 % 0.0 in
19:20 6.1 °F 4.0 °F 1000.9 in West 12.2 mph 20.1 mph 85 % 0.0 in
19:25 5.9 °F 4.0 °F 1000.9 in West 13.0 mph 20.1 mph 85 % 0.0 in
19:30 5.8 °F 4.0 °F 1001.9 in West 11.9 mph 20.1 mph 84 % 0.0 in
19:35 5.8 °F 3.0 °F 1001.9 in West 9.3 mph 20.1 mph 82 % 0.0 in
19:40 5.8 °F 3.0 °F 1001.9 in West 12.6 mph 20.1 mph 82 % 0.0 in
19:45 5.8 °F 3.0 °F 1001.9 in West 12.6 mph 20.1 mph 82 % 0.0 in
19:50 5.7 °F 3.0 °F 1001.9 in West 8.7 mph 16.9 mph 82 % 0.0 in
19:56 5.7 °F 3.0 °F 1001.9 in West 13.7 mph 17.7 mph 82 % 0.0 in
20:01 5.6 °F 3.0 °F 1001.9 in West 5.8 mph 17.7 mph 82 % 0.0 in
20:06 5.4 °F 3.0 °F 1001.9 in West 1.4 mph 17.2 mph 83 % 0.0 in
20:11 5.2 °F 3.0 °F 1001.9 in Calm   10.5 mph 83 % 0.0 in
20:16 5.1 °F 3.0 °F 1001.9 in WSW 5.8 mph 8.7 mph 83 % 0.0 in
20:21 5.1 °F 3.0 °F 1001.9 in West 5.8 mph 12.6 mph 82 % 0.0 in
20:26 5.0 °F 3.0 °F 1001.9 in WSW 5.8 mph 12.6 mph 82 % 0.0 in
20:31 4.9 °F 2.0 °F 1001.9 in West 8.7 mph 12.2 mph 82 % 0.0 in
20:36 4.7 °F 2.0 °F 1001.9 in West 9.0 mph 10.5 mph 81 % 0.0 in
20:41 4.4 °F 1.0 °F 1001.9 in Calm   10.5 mph 81 % 0.0 in
20:46 4.2 °F 1.0 °F 1001.9 in Calm   7.9 mph 81 % 0.0 in
20:51 3.9 °F 1.0 °F 1001.9 in Calm   6.4 mph 82 % 0.0 in
20:56 3.7 °F 1.0 °F 1001.9 in Calm   6.9 mph 82 % 0.0 in
21:01 3.5 °F 1.0 °F 1001.9 in Calm   6.9 mph 83 % 0.0 in
21:06 3.4 °F 1.0 °F 1001.9 in Calm   6.9 mph 83 % 0.0 in
21:11 3.2 °F 1.0 °F 1001.9 in WSW 7.6 mph 7.6 mph 84 % 0.0 in
21:16 3.0 °F 1.0 °F 1001.9 in Calm   9.0 mph 84 % 0.0 in
21:21 3.0 °F 1.0 °F 1001.9 in West 7.9 mph 9.0 mph 85 % 0.0 in
21:26 3.0 °F 1.0 °F 1001.9 in West 7.9 mph 10.1 mph 85 % 0.0 in
21:31 3.1 °F 1.0 °F 1000.9 in West 7.9 mph 10.5 mph 86 % 0.0 in
21:36 3.3 °F 2.0 °F 1000.9 in West 1.4 mph 14.0 mph 87 % 0.0 in
21:42 3.3 °F 2.0 °F 1000.9 in WNW 9.7 mph 14.0 mph 87 % 0.0 in
21:47 3.4 °F 2.0 °F 1001.9 in West 6.4 mph 13.0 mph 87 % 0.0 in
21:52 3.4 °F 2.0 °F 1001.9 in WNW 4.0 mph 12.2 mph 87 % 0.0 in
21:57 3.3 °F 1.0 °F 1001.9 in Calm   9.3 mph 86 % 0.0 in
22:02 3.1 °F 1.0 °F 1001.9 in Calm   9.3 mph 86 % 0.0 in
22:07 3.0 °F 1.0 °F 1001.9 in Calm   7.6 mph 86 % 0.0 in
22:12 2.8 °F 1.0 °F 1001.9 in Calm   6.9 mph 86 % 0.0 in
22:17 2.7 °F 1.0 °F 1001.9 in Calm   6.1 mph 87 % 0.0 in
22:22 2.6 °F 1.0 °F 1001.9 in Calm   3.5 mph 87 % 0.0 in
22:27 2.4 °F 1.0 °F 1001.9 in Calm   2.1 mph 87 % 0.0 in
22:32 2.3 °F 1.0 °F 1000.9 in Calm   2.1 mph 87 % 0.0 in
22:37 2.0 °F 1.0 °F 1000.9 in Calm     87 % 0.0 in
22:42 1.8 °F 0.0 °F 1000.9 in Calm     87 % 0.0 in
22:47 1.8 °F 0.0 °F 1001.9 in Calm     88 % 0.0 in
22:52 2.0 °F 1.0 °F 1001.9 in Calm   8.7 mph 89 % 0.0 in
22:57 2.0 °F 1.0 °F 1001.9 in Calm   8.7 mph 89 % 0.0 in
23:02 2.1 °F 1.0 °F 1001.9 in WSW 6.1 mph 9.0 mph 90 % 0.0 in
23:07 2.1 °F 1.0 °F 1001.9 in WSW 10.1 mph 10.1 mph 90 % 0.0 in
23:12 2.2 °F 1.0 °F 1001.9 in WSW 7.6 mph 10.8 mph 91 % 0.0 in
23:17 2.3 °F 1.0 °F 1000.9 in WSW 10.1 mph 10.8 mph 91 % 0.0 in
23:22 2.3 °F 1.0 °F 1000.9 in Calm   10.1 mph 91 % 0.0 in
23:27 2.2 °F 1.0 °F 1000.9 in Calm   8.7 mph 91 % 0.0 in
23:32 2.1 °F 1.0 °F 1000.9 in Calm     91 % 0.0 in
23:37 2.1 °F 1.0 °F 1000.9 in WSW 6.9 mph 10.1 mph 91 % 0.0 in
23:42 2.1 °F 1.0 °F 1000.9 in Calm   10.1 mph 91 % 0.0 in
23:47 2.1 °F 1.0 °F 1000.9 in Calm   10.1 mph 92 % 0.0 in
23:53 2.2 °F 1.0 °F 1000.9 in West 7.9 mph 10.1 mph 92 % 0.0 in
23:58 2.2 °F 1.0 °F 1000.9 in West 5.0 mph 8.7 mph 92 % 0.0 in
Le Gheer Warneton
Courtoisie de Weather Underground - 2.25 mb

Mise a jour : 25/02/2018 18:20:12
Généré par Cumulus 1.9.4 (1099)